Location: eljas
(40.1958°N, 6.8661°W)
Time: 02:33:48
(UTC+02:00)

ISS - All Passes

Search period start: 29 July 2014 00:00
Search period end: 08 August 2014 00:00
Orbit: 411 x 420 km, 51.6° (Epoch: 28 July)

Date Brightness Start Highest point End Pass type
(mag) Time Alt. Az. Time Alt. Az. Time Alt. Az.
29 Jul - 00:16:40 10° SSE 00:18:32 14° SE 00:20:25 10° E night (unlit)
29 Jul - 01:51:35 10° WSW 01:54:53 62° NW 01:58:13 10° NE visible
29 Jul - 03:29:58 10° WNW 03:32:09 16° NNW 03:34:20 10° NNE visible
29 Jul - 05:08:31 10° NNW 05:09:57 12° N 05:11:23 10° NNE visible
29 Jul - 06:44:43 10° NNW 06:47:35 25° NNE 06:50:26 10° E visible
29 Jul - 08:21:11 10° WNW 08:24:27 48° SW 08:27:41 10° SSE daylight
30 Jul - 01:02:45 10° SW 01:06:05 75° SE 01:09:26 10° NE night (unlit)
30 Jul - 02:40:32 10° WNW 02:43:07 20° NNW 02:45:42 10° NNE visible
30 Jul - 04:19:31 10° NNW 04:20:50 12° N 04:22:09 10° NNE visible
30 Jul - 05:56:06 10° NNW 05:58:35 19° NNE 06:01:04 10° ENE visible
30 Jul - 07:32:18 10° NW 07:35:41 88° SW 07:39:02 10° SE daylight
31 Jul - 00:14:11 10° SSW 00:17:20 40° SE 00:20:30 10° ENE night (unlit)
31 Jul - 01:51:12 10° W 01:54:07 27° NNW 01:57:04 10° NE visible
31 Jul - 03:30:13 10° NNW 03:31:43 12° N 03:33:12 10° NNE visible
31 Jul - 05:07:28 10° NNW 05:09:32 15° NNE 05:11:36 10° NE visible
31 Jul - 06:43:32 10° NW 06:46:51 53° NNE 06:50:08 10° ESE visible
31 Jul - 08:21:01 10° W 08:23:16 17° SW 08:25:31 10° S daylight
31 Jul - 23:25:59 10° S 23:28:38 22° SE 23:31:19 10° E night (unlit)
01 Aug - 01:02:01 10° WSW 01:05:11 41° NNW 01:08:23 10° NE night (unlit)
01 Aug - 02:40:46 10° NW 02:42:36 14° NNW 02:44:27 10° NNE visible
01 Aug - 04:18:46 10° NNW 04:20:26 13° N 04:22:07 10° NE visible
01 Aug - 05:54:50 10° NW 05:57:56 33° NNE 06:01:02 10° E visible
01 Aug - 07:31:38 10° WNW 07:34:37 29° SW 07:37:34 10° SSE daylight
01 Aug - 22:38:28 10° SSE 22:40:00 13° SE 22:41:33 10° E visible
02 Aug - 00:13:00 10° WSW 00:16:19 69° NW 00:19:39 10° NE night (unlit)
02 Aug - 01:51:16 10° WNW 01:53:31 17° NNW 01:55:47 10° NNE visible
02 Aug - 03:29:56 10° NNW 03:31:19 12° N 03:32:42 10° NNE visible
02 Aug - 05:06:11 10° NNW 05:08:58 24° NNE 05:11:45 10° E visible
02 Aug - 06:42:35 10° WNW 06:45:53 54° SW 06:49:09 10° SE visible
02 Aug - 23:24:12 10° SW 23:27:30 66° SE 23:30:49 10° ENE visible
03 Aug - 01:01:50 10° WNW 01:04:29 21° NNW 01:07:08 10° NNE visible
03 Aug - 02:40:51 10° NNW 02:42:10 12° N 02:43:30 10° NNE visible
03 Aug - 04:17:32 10° NNW 04:19:56 18° NNE 04:22:21 10° ENE visible
03 Aug - 05:53:42 10° NW 05:57:05 83° NE 06:00:26 10° SE visible
03 Aug - 07:32:37 10° WSW 07:33:19 11° SW 07:34:00 10° SW daylight
03 Aug - 22:35:40 10° SSW 22:38:44 35° SE 22:41:49 10° ENE visible
04 Aug - 00:12:30 10° W 00:15:29 29° NNW 00:18:28 10° NE visible
04 Aug - 01:51:30 10° NW 01:53:02 13° N 01:54:34 10° NNE visible
04 Aug - 03:28:53 10° NNW 03:30:52 15° NNE 03:32:51 10° NE visible
04 Aug - 05:04:56 10° NW 05:08:13 48° NNE 05:11:28 10° ESE visible
04 Aug - 06:42:14 10° W 06:44:41 19° SW 06:47:07 10° S visible
04 Aug - 21:47:32 10° S 21:50:02 20° SE 21:52:33 10° E daylight
04 Aug - 23:23:20 10° WSW 23:26:32 45° NNW 23:29:46 10° NE visible
05 Aug - 01:02:00 10° NW 01:03:55 14° NNW 01:05:49 10° NNE visible
05 Aug - 02:40:09 10° NNW 02:41:44 13° N 02:43:20 10° NE visible
05 Aug - 04:16:14 10° NW 04:19:16 31° NNE 04:22:18 10° E visible
05 Aug - 05:52:55 10° WNW 05:55:59 33° SW 05:59:02 10° SSE visible
05 Aug - 21:00:20 10° SSE 21:01:24 11° SE 21:02:27 10° ESE daylight
05 Aug - 22:34:20 10° WSW 22:37:39 77° NW 22:41:00 10° NE visible
06 Aug - 00:12:29 10° WNW 00:14:49 17° NNW 00:17:09 10° NNE visible
06 Aug - 01:51:16 10° NNW 01:52:35 12° N 01:53:55 10° NNE visible
06 Aug - 03:27:33 10° NNW 03:30:16 22° NNE 03:32:59 10° ENE night (unlit)
06 Aug - 05:03:54 10° WNW 05:07:13 61° SW 05:10:32 10° SE night (unlit)
06 Aug - 21:45:34 10° SW 21:48:49 58° SE 21:52:07 10° ENE daylight
06 Aug - 23:23:03 10° WNW 23:25:45 22° NNW 23:28:29 10° NNE visible
07 Aug - 01:02:06 10° NNW 01:03:26 12° N 01:04:46 10° NNE visible
07 Aug - 02:38:54 10° NNW 02:41:13 17° NNE 02:43:31 10° ENE visible
07 Aug - 04:15:02 10° NW 04:18:23 74° NE 04:21:44 10° ESE night (unlit)
07 Aug - 05:53:21 10° WSW 05:54:40 12° SW 05:55:59 10° SSW night (unlit)
07 Aug - 20:57:05 10° SSW 21:00:03 31° SE 21:03:04 10° ENE daylight
07 Aug - 22:33:44 10° W 22:36:45 31° NNW 22:39:48 10° NE visible
